Home > Weather > Nijmegen > Past weeks

Flag for Netherlands Weather for the Past 2 Weeks in Nijmegen, Netherlands

Now
36 °F

Chilly.


Feels Like: 32 °F
Forecast: 37 / 44 °F
Wind: 5 mph from Southwest

Location: Volkel

Current Time: Feb 10, 2016 at 11:22:31 PM

Latest Report: Feb 10, 2016 at 10:55 PM


Visibility: N/A

Pressure: 29.53 "Hg

Humidity: 93%

Dew point: 34 °F

Location of NijmegenLocation

Historic Weather in Nijmegen — Graph

°F

Nijmegen Temperature Yesterday

Maximum temperature yesterday: 46 °F (at 12:25 AM)
Minimum temperature yesterday: 36 °F (at 5:59 PM)
Average temperature yesterday: 41 °F

High & Low Weather Summary for the Past Weeks

 TemperatureHumidityPressure
High54 °F (Jan 27, 1:55 PM)100% (Jan 27, 11:55 PM)30.30 "Hg (Jan 27, 11:55 PM)
Low36 °F (Jan 31, 1:55 AM)57% (Feb 3, 1:25 PM)28.85 "Hg (Feb 9, 2:58 PM)
Average45 °F83%29.79 "Hg
* Reported Jan 26 9:25 PM — Feb 10 9:59 PM, Nijmegen, Weather by CustomWeather, © 2016

Note: Actual official high and low records may vary slightly from our data, if they occured in-between our weather recording intervals... More about our weather records

Advertising

Nijmegen Weather History for the Previous 24 Hours

 ConditionsComfort  
Time TempWeatherWind HumidityBarometerVisibility
9:59 PM
Wed, Feb 10
41 °FPartly cloudy.9 mph81%29.50 "HgN/A
9:25 PM39 °FPartly cloudy.8 mph93%29.50 "HgN/A
8:59 PM39 °FPassing clouds.8 mph87%29.50 "HgN/A
8:25 PM41 °FMostly cloudy.10 mph87%29.47 "HgN/A
7:55 PM39 °FPassing clouds.8 mph93%29.47 "HgN/A
7:25 PM39 °FPassing clouds.8 mph93%29.45 "HgN/A
6:55 PM41 °FPassing clouds.8 mph93%29.45 "HgN/A
6:25 PM41 °FOvercast.8 mph93%29.42 "HgN/A
6:03 PM41 °FOvercast.7 mph87%29.42 "HgN/A
5:55 PM41 °FMostly cloudy.8 mph87%29.42 "HgN/A
5:25 PM41 °FBroken clouds.9 mph87%29.39 "HgN/A
4:59 PM41 °FDrizzle. Broken clouds.10 mph93%29.39 "HgN/A
4:55 PM41 °FDrizzle. More clouds than sun.9 mph93%29.39 "HgN/A
4:25 PM41 °FSprinkles. Mostly cloudy.12 mph93%29.36 "HgN/A
3:56 PM43 °FDrizzle. Partly sunny.16 mph81%29.36 "HgN/A
3:25 PM45 °FMore clouds than sun.13 mph81%29.33 "HgN/A
2:55 PM45 °FOvercast.12 mph81%29.33 "HgN/A
2:25 PM45 °FBroken clouds.13 mph76%29.33 "HgN/A
1:55 PM45 °FPassing clouds.10 mph76%29.33 "HgN/A
1:25 PM45 °FScattered clouds.13 mph76%29.30 "HgN/A
12:55 PM43 °FBroken clouds.10 mph81%29.30 "HgN/A
12:25 PM43 °FBroken clouds.9 mph87%29.30 "HgN/A
11:59 AM43 °FBroken clouds.10 mph87%29.30 "HgN/A
11:55 AM43 °FDrizzle. Broken clouds.13 mph87%29.30 "HgN/A
11:25 AM41 °FBroken clouds.13 mph93%29.30 "HgN/A
10:55 AM39 °FDrizzle. Broken clouds.16 mph93%29.27 "HgN/A
10:25 AM39 °FBroken clouds.17 mph93%29.27 "HgN/A
9:55 AM39 °FCloudy.18 mph93%29.27 "HgN/A
9:25 AM39 °FFog.17 mph93%29.24 "Hg6 mi
9:02 AM39 °FFog.15 mph93%29.24 "Hg4 mi
8:55 AM39 °FPartly sunny.15 mph93%29.24 "HgN/A
8:25 AM39 °FBroken clouds.14 mph93%29.24 "HgN/A
7:55 AM39 °FPartly cloudy.14 mph93%29.21 "HgN/A
7:25 AM37 °FMostly cloudy.16 mph93%29.21 "HgN/A
6:55 AM37 °FDrizzle. Overcast.18 mph93%29.21 "Hg6 mi
6:25 AM37 °FDrizzle. Mostly cloudy.16 mph93%29.21 "HgN/A
5:55 AM37 °FLight rain. Overcast.20 mph93%29.21 "Hg5 mi
5:25 AM37 °FSprinkles. Passing clouds.18 mph93%29.21 "HgN/A
5:04 AM39 °FDrizzle. Mostly cloudy.20 mph87%29.21 "Hg4 mi
4:55 AM39 °FDrizzle. Mostly cloudy.17 mph87%29.21 "HgN/A
3:55 AM37 °FLight rain. Partly cloudy.14 mph93%29.21 "HgN/A
3:25 AM37 °FRain showers. Passing clouds.16 mph93%29.21 "Hg5 mi
2:55 AM37 °FPartly cloudy.17 mph93%29.21 "HgN/A
2:25 AM37 °FPassing clouds.16 mph87%29.21 "HgN/A
1:25 AM37 °FChilly.13 mph87%29.21 "HgN/A
12:55 AM37 °FPartly cloudy.13 mph87%29.21 "HgN/A
12:25 AM37 °FPartly cloudy.14 mph93%29.21 "HgN/A
11:55 PM
Tue, Feb 9
39 °FPartly cloudy.14 mph87%29.18 "HgN/A
11:25 PM37 °FPassing clouds.15 mph93%29.18 "HgN/A
Weather by CustomWeather, © 2016

See weather overviewHow to use our weather pages